Location: Sceptre
(50.8619°N, 109.2670°W)
Time: 22:49:32
(UTC+00:00)

A-11 Canister half - All Passes

Search period start: 28 May 2022 00:00
Search period end: 07 June 2022 00:00
Orbit: 1513 x 1686 km, 47.2° (Epoch: 27 May)

Date Brightness Start Highest point End Pass type
(mag) Time Alt. Az. Time Alt. Az. Time Alt. Az.
28 May - 12:19:10 10° SSE 12:23:03 13° SE 12:26:52 10° E daylight
28 May - 14:17:14 10° SSW 14:25:50 40° SE 14:34:13 10° E daylight
28 May - 16:20:29 10° WSW 16:29:49 68° SSE 16:38:56 10° E daylight
28 May - 18:25:03 10° W 18:34:16 67° SSW 18:43:24 10° ESE daylight
28 May - 20:29:53 10° W 20:38:11 39° SW 20:46:30 10° SSE daylight
28 May - 22:37:29 10° WSW 22:40:54 13° SW 22:44:19 10° SSW daylight
29 May - 11:57:07 10° SE 12:00:15 12° SE 12:03:22 10° ESE daylight
29 May - 13:54:28 10° SSW 14:02:59 38° SE 14:11:18 10° E daylight
29 May - 15:57:34 10° WSW 16:06:55 67° SSE 16:16:03 10° E daylight
29 May - 18:02:08 10° W 18:11:23 68° S 18:20:31 10° ESE daylight
29 May - 20:06:57 10° W 20:15:21 41° SW 20:23:45 10° SSE daylight
29 May - 22:14:04 10° W 22:18:07 14° SW 22:22:12 10° SSW daylight
30 May - 11:35:21 10° SE 11:37:28 11° ESE 11:39:35 10° ESE daylight
30 May - 13:31:42 10° SSW 13:40:08 36° SE 13:48:21 10° E daylight
30 May - 15:34:40 10° WSW 15:44:01 66° SSE 15:53:09 10° E daylight
30 May - 17:39:12 10° W 17:48:30 69° S 17:57:38 10° ESE daylight
30 May - 19:44:00 10° W 19:52:31 43° SSW 20:00:59 10° SE daylight
30 May - 21:50:45 10° W 21:55:21 15° SW 21:59:57 10° SSW daylight
31 May - 13:08:57 10° SSW 13:17:18 35° SE 13:25:25 10° E daylight
31 May - 15:11:45 10° WSW 15:21:08 64° SSE 15:30:15 10° E daylight
31 May - 17:16:16 10° W 17:25:36 70° S 17:34:45 10° ESE daylight
31 May - 19:21:04 10° W 19:29:40 44° SSW 19:38:12 10° SE daylight
31 May - 21:27:31 10° W 21:32:34 16° SW 21:37:38 10° SSW daylight
01 Jun - 12:46:13 10° SSW 12:54:27 33° SE 13:02:29 10° E daylight
01 Jun - 14:48:51 10° WSW 14:58:14 63° SSE 15:07:21 10° E daylight
01 Jun - 16:53:20 10° W 17:02:42 71° S 17:11:51 10° ESE daylight
01 Jun - 18:58:07 10° W 19:06:49 46° SSW 19:15:25 10° SE daylight
01 Jun - 21:04:20 10° W 21:09:47 17° SW 21:15:15 10° SSW daylight
02 Jun - 12:23:30 10° SSW 12:31:37 32° SE 12:39:32 10° E daylight
02 Jun - 14:25:58 10° WSW 14:35:20 62° SSE 14:44:27 10° E daylight
02 Jun - 16:30:24 10° W 16:39:48 71° S 16:48:58 10° ESE daylight
02 Jun - 18:35:11 10° W 18:43:57 48° SSW 18:52:38 10° SE daylight
02 Jun - 20:41:12 10° W 20:47:00 19° SW 20:52:48 10° S daylight
03 Jun - 12:00:46 10° SSW 12:08:46 30° SE 12:16:34 10° E daylight
03 Jun - 14:03:04 10° WSW 14:12:27 60° SSE 14:21:33 10° E daylight
03 Jun - 16:07:28 10° W 16:16:53 72° S 16:26:05 10° ESE daylight
03 Jun - 18:12:14 10° W 18:21:06 50° SSW 18:29:50 10° SE daylight
03 Jun - 20:18:05 10° W 20:24:13 20° SW 20:30:20 10° S daylight
04 Jun - 11:38:04 10° SSW 11:45:56 29° SE 11:53:36 10° E daylight
04 Jun - 13:40:10 10° SW 13:49:33 59° SSE 13:58:39 10° E daylight
04 Jun - 15:44:32 10° W 15:53:59 72° S 16:03:11 10° ESE daylight
04 Jun - 17:49:18 10° W 17:58:14 51° SSW 18:07:01 10° SE daylight
04 Jun - 19:55:00 10° W 20:01:25 21° SW 20:07:49 10° S daylight
05 Jun - 11:15:24 10° S 11:23:06 27° SE 11:30:37 10° E daylight
05 Jun - 13:17:17 10° SW 13:26:40 58° SSE 13:35:45 10° E daylight
05 Jun - 15:21:35 10° W 15:31:05 72° S 15:40:18 10° E daylight
05 Jun - 17:26:22 10° W 17:35:22 53° SSW 17:44:12 10° SE daylight
05 Jun - 19:31:56 10° W 19:38:37 23° SW 19:45:17 10° S daylight
06 Jun - 10:52:44 10° S 11:00:17 26° SE 11:07:37 10° E daylight
06 Jun - 12:54:24 10° SW 13:03:46 56° SSE 13:12:51 10° E daylight
06 Jun - 14:58:39 10° W 15:08:10 72° S 15:17:24 10° E daylight
06 Jun - 17:03:26 10° W 17:12:30 55° SSW 17:21:23 10° SE daylight
06 Jun - 19:08:53 10° W 19:15:49 24° SW 19:22:43 10° S daylight
